Probability
0 0 0 1 2 3 2 1 1 0 0 0 0 0 0 0 0 0 0 0 0 0 0 0 0 0 0 0 0 0 0 0 0 0 0 0 0 0 0 0 0 0 0
0 0 0 1 2 3 3 2 2 1 0 0 0 0 0 0 0 0 0 0 0 0 0 0 0 0 0 0 0 0 0 0 0 0 0 0 0 0 0 0 0 0 0
0 0 0 0 1 3 3 3 3 2 1 0 0 0 0 0 0 0 0 0 0 0 0 0 0 0 0 0 0 0 0 0 0 0 0 0 0 0 0 0 0 0 0
0 0 1 1 1 2 3 3 3 2 1 0 0 0 0 0 0 0 0 0 0 0 0 0 0 0 0 0 0 0 0 0 0 0 0 0 0 0 0 0 0 0 0
0 0 1 1 1 2 4 4 3 3 1 0 0 0 0 0 0 0 0 0 0 0 0 0 0 0 0 0 0 0 0 0 0 0 0 0 0 0 0 0 0 0 0
0 0 1 1 0 1 4 4 3 3 2 1 1 0 0 0 0 0 0 0 0 0 0 0 0 0 0 0 0 0 0 0 0 0 0 0 0 0 0 0 0 0 0
0 0 0 0 0 1 3 4 3 3 2 2 1 0 0 0 0 0 0 0 0 0 0 0 0 0 0 0 0 0 0 0 0 0 0 0 0 0 0 0 0 0 0
0 0 0 0 0 1 3 4 3 2 2 1 1 0 0 0 0 0 1 1 0 0 0 0 0 0 0 0 0 0 0 0 0 0 0 0 0 0 0 0 0 0 0
0 0 0 0 0 1 2 3 3 3 2 2 1 0 0 0 0 0 1 1 1 0 0 0 0 0 0 0 0 0 0 0 0 0 0 0 0 0 0 0 0 0 0
0 0 0 0 0 1 2 2 2 2 2 2 1 0 0 0 0 0 0 0 1 1 1 1 0 0 0 0 0 0 0 0 0 0 0 0 0 0 0 0 0 0 0
0 0 0 0 0 0 1 1 1 1 1 1 1 0 0 0 0 0 0 0 0 1 1 1 0 0 0 0 1 1 1 0 0 0 0 0 0 0 0 0 0 0 0
0 0 0 0 0 0 0 0 0 0 0 0 0 0 0 0 0 0 0 0 0 0 1 1 0 0 0 0 1 2 1 0 0 0 0 0 0 0 0 0 0 0 0
0 0 0 0 0 0 0 0 0 0 0 0 0 0 0 0 0 0 0 0 0 0 0 0 0 0 0 0 1 1 1 0 0 0 0 0 0 0 0 0 0 0 0
0 0 0 0 0 0 0 0 0 0 0 0 0 0 0 0 0 0 0 0 0 0 0 0 0 0 0 0 0 0 0 0 0 0 0 0 0 0 0 0 0 0 0
0 0 0 0 0 0 0 0 0 0 0 0 0 0 0 0 0 0 0 0 0 0 0 0 0 0 0 0 0 0 0 0 0 0 0 0 0 0 0 0 0 0 0
0 0 0 0 0 0 0 0 0 0 0 0 0 0 0 0 0 0 0 0 0 0 0 0 0 0 0 0 0 0 0 0 0 0 0 0 0 0 0 0 0 0 0
0 0 0 0 0 0 0 0 0 0 0 0 0 0 0 0 0 0 0 0 0 0 0 0 0 0 0 0 0 0 0 0 0 0 0 0 0 0 0 0 0 0 0
0 0 0 0 0 0 0 0 0 0 0 0 0 0 0 0 0 0 0 0 0 0 0 0 0 0 0 0 0 0 0 0 0 0 0 0 0 0 0 0 0 0 0
0 0 0 0 0 0 0 0 0 0 0 0 0 0 0 0 0 0 0 0 0 0 0 0 0 0 0 0 0 0 0 0 0 0 0 0 0 0 0 0 0 0 0
0 0 0 0 0 0 0 0 0 0 0 0 0 0 0 0 0 0 0 0 0 0 0 0 0 0 0 0 0 0 0 0 0 0 0 0 0 0 0 0 0 0 0
0 0 0 0 0 0 0 0 0 0 0 0 0 0 0 0 0 0 0 0 0 0 0 0 0 0 0 0 0 0 0 0 0 0 0 0 0 0 0 0 0 0 0
0 0 0 0 0 0 0 0 0 0 0 0 0 0 0 0 0 0 0 0 0 0 0 0 0 0 0 0 0 0 0 0 0 0 0 0 0 0 0 0 0 0 0
0 0 0 0 0 0 0 0 0 0 0 0 0 0 0 0 0 0 0 0 0 0 0 0 0 0 0 0 0 0 0 0 0 0 0 0 0 0 0 0 0 0 0
0 0 0 0 0 0 0 0 0 0 0 0 0 0 0 0 0 0 0 0 0 0 0 0 0 0 0 0 0 0 0 0 0 0 0 0 0 0 0 0 0 0 0
0 0 0 0 0 0 0 0 0 0 0 0 0 0 0 0 0 0 0 0 0 0 0 0 0 0 0 0 0 0 0 0 0 0 0 0 0 0 0 0 0 0 0
0 0 0 0 0 0 0 0 0 0 0 0 0 0 0 0 0 0 0 0 0 0 0 0 0 0 0 0 0 0 0 0 0 0 0 0 0 0 0 0 0 0 0
Wind_Speed
2 1 1 1 1 1 1 2 2 2 2 2 3 3 4 3 3 4 5 6 6 6 5 4 4 4 4 5 5 4 4 3 2 1 2 3 3 3 3 3 3 2 2
4 4 3 2 2 1 1 1 2 2 2 3 3 2 2 2 2 2 4 5 6 6 6 6 5 5 4 5 5 4 3 3 3 3 2 2 3 2 3 2 3 3 2
2 3 4 3 2 2 0 1 1 1 1 1 0 1 1 0 0 1 2 3 4 5 5 6 6 5 6 6 6 6 6 5 4 4 4 3 4 2 2 2 2 2 2
2 3 3 4 3 2 1 1 0 1 0 1 1 1 1 2 3 2 2 1 2 3 4 5 6 5 5 6 6 6 6 5 5 4 5 4 3 3 2 2 1 1 2
3 3 3 2 2 2 2 2 2 2 1 1 1 1 1 1 1 1 1 1 1 2 2 3 4 5 5 5 5 5 6 5 6 4 3 4 4 4 4 4 2 1 2
4 4 4 4 4 5 4 4 4 4 3 2 1 0 1 1 1 1 1 2 2 2 2 2 2 3 4 5 5 5 6 5 5 5 4 3 3 3 4 5 4 3 2
4 5 6 6 6 6 6 5 4 4 3 3 2 1 1 1 1 1 1 2 2 2 3 3 3 3 3 3 4 4 5 5 5 5 5 4 4 2 3 4 3 3 2
4 4 4 4 5 5 6 6 5 5 4 3 2 2 2 1 1 2 1 2 2 2 3 2 2 2 2 2 3 3 3 4 5 5 5 4 4 3 3 3 3 3 3
4 4 4 4 4 4 5 5 5 6 5 4 4 3 3 3 3 3 2 2 2 2 3 3 3 3 2 2 2 1 2 2 3 4 5 5 4 3 3 3 4 4 5
5 6 6 5 5 4 4 5 5 5 5 5 4 3 3 3 3 3 3 3 3 3 3 3 3 3 3 2 1 1 1 2 2 2 2 4 3 3 3 3 4 4 5
4 4 5 5 5 5 5 5 5 6 6 6 5 4 4 3 3 3 3 3 3 3 3 3 3 3 3 3 2 2 2 2 2 2 2 3 3 3 2 3 3 3 3
3 3 4 5 6 6 6 6 6 6 6 6 6 5 5 5 4 4 4 4 3 3 3 3 4 3 3 3 2 2 2 2 2 3 3 3 2 3 2 2 2 2 2
3 4 4 5 5 5 6 6 6 5 5 5 5 5 5 5 5 5 5 5 4 4 4 4 4 4 4 3 3 3 3 3 3 3 3 3 3 2 2 2 2 2 1
3 3 4 4 5 4 5 5 5 5 5 5 4 4 5 5 4 4 5 5 4 4 4 4 4 4 4 3 3 3 3 3 3 2 2 3 3 3 2 2 2 1 1
4 3 4 4 4 4 4 5 5 5 5 5 5 4 4 4 4 4 4 4 4 4 4 4 4 3 3 2 3 3 3 3 3 3 2 2 2 2 2 1 2 2 1
4 4 4 4 4 4 5 5 5 5 5 5 5 5 4 5 5 4 4 4 4 4 4 4 4 4 3 4 4 3 2 2 2 3 3 2 2 2 2 1 1 2 3
4 4 4 4 4 4 4 4 5 4 4 4 5 4 4 5 5 5 4 4 4 5 5 4 4 4 5 6 5 4 2 2 2 2 2 2 2 2 2 1 2 2 1
5 5 5 5 5 4 4 4 4 4 4 4 5 5 4 5 5 4 4 4 4 4 4 4 4 4 5 6 5 4 2 1 2 2 2 2 2 1 1 1 2 2 2
4 4 4 5 5 5 4 4 4 4 4 4 5 5 5 5 5 5 5 4 4 4 4 4 4 4 5 5 5 4 1 1 2 2 2 2 2 1 1 0 1 1 2
4 4 5 4 4 5 4 4 4 4 5 5 5 5 4 4 5 5 5 4 4 4 4 4 4 4 5 5 6 5 1 1 2 1 2 2 3 3 2 1 1 1 2
5 4 4 4 5 5 4 5 5 5 5 5 5 5 5 5 5 5 4 4 4 4 4 4 5 4 5 5 6 5 2 2 2 2 2 2 3 3 3 2 2 2 1
5 5 5 5 5 4 4 5 6 6 5 5 5 5 5 4 4 4 4 4 3 4 4 4 4 3 3 4 4 5 5 4 2 3 2 2 3 3 3 1 0 0 1
5 4 5 6 6 5 4 6 7 6 5 5 5 5 5 4 4 4 4 3 3 3 3 3 4 4 3 3 5 5 5 5 3 2 3 3 2 2 1 1 1 2 1
4 4 5 6 7 6 5 6 7 6 5 5 5 5 5 5 4 3 3 3 3 3 3 4 4 4 4 3 3 2 2 2 2 1 1 1 1 0 2 2 1 1 0
4 4 5 6 7 7 6 6 5 5 5 5 5 5 4 4 4 4 3 4 4 5 5 4 4 4 5 6 7 5 2 2 1 0 0 0 0 0 1 1 1 1 1
5 5 5 6 7 7 7 6 5 4 4 5 4 4 4 3 3 4 5 6 7 9 10 9 7 6 7 9 8 7 6 4 3 1 1 1 1 1 1 1 0 0 0
Wind_Direction
299 5 42 86 92 95 131 162 182 197 179 181 197 203 211 208 207 209 207 205 204 202 202 209 207 202 209 215 208 206 210 220 191 217 284 284 260 252 251 240 236 240 242
11 21 26 44 70 104 165 168 180 186 198 216 208 209 208 211 210 212 215 212 211 208 206 207 210 207 211 216 213 209 210 218 192 188 220 281 297 272 251 239 228 232 235
12 16 26 20 29 33 54 204 197 200 224 269 119 69 67 33 213 245 237 234 226 221 217 213 213 212 210 217 218 212 217 227 220 204 198 217 239 274 271 244 233 228 226
20 19 22 22 15 351 354 17 86 86 38 82 88 137 192 226 238 259 248 266 241 238 227 220 218 219 219 222 221 217 218 218 231 228 226 227 200 219 270 265 247 244 238
36 36 29 23 9 8 23 18 29 39 39 97 151 187 234 257 307 356 338 302 276 258 256 239 226 225 229 230 223 217 218 220 227 226 226 238 238 228 237 258 247 245 236
38 41 32 34 26 19 22 27 33 27 21 25 45 205 261 301 348 314 289 299 302 292 279 278 261 243 236 234 229 225 220 221 225 229 224 217 222 227 230 249 255 247 234
46 41 33 32 29 26 23 23 33 27 17 16 8 348 301 255 242 260 266 291 298 308 305 293 273 268 261 248 234 231 227 223 222 226 230 230 234 227 222 238 255 256 246
43 43 32 29 30 29 28 29 27 18 14 10 348 352 354 322 300 303 302 283 285 291 308 310 300 291 288 283 260 241 235 229 225 228 229 232 234 231 225 220 228 256 255
31 32 27 25 25 26 26 25 24 19 12 10 10 16 9 360 347 339 334 322 326 324 324 319 321 315 304 290 282 265 260 255 243 238 236 235 238 235 234 227 220 228 249
25 28 26 21 19 19 17 21 25 19 11 9 10 11 4 359 357 3 357 346 335 334 328 323 323 331 330 314 297 296 275 251 257 259 268 256 251 244 237 229 233 232 241
27 24 18 17 21 25 24 21 19 17 13 8 5 8 7 8 9 8 359 349 345 346 337 327 324 323 327 332 321 302 293 270 275 273 266 272 266 260 257 248 241 239 236
32 30 21 20 24 24 20 19 17 16 9 6 7 7 6 9 11 4 354 351 347 345 341 341 333 327 327 325 319 309 296 280 274 278 273 275 279 268 265 262 263 259 252
27 26 23 19 15 13 11 11 11 10 5 8 10 9 8 7 4 357 353 352 352 353 353 350 345 336 331 326 318 310 308 297 285 278 272 272 261 265 271 271 263 267 281
21 20 15 12 7 4 1 2 360 3 2 4 8 7 2 354 352 351 352 350 349 351 350 347 347 348 346 341 337 334 324 318 307 291 276 275 267 258 253 252 251 251 253
12 6 0 357 353 352 351 355 352 354 355 356 358 356 353 351 349 349 349 346 345 343 342 342 342 342 338 339 344 341 325 324 321 317 317 317 306 291 275 255 252 238 228
347 343 343 342 338 337 337 341 341 340 347 347 343 343 347 349 346 343 344 345 343 340 338 333 329 325 323 331 339 344 331 335 330 325 333 338 343 359 359 328 274 238 222
332 332 329 321 317 317 319 322 322 328 337 335 333 335 337 337 335 333 338 338 334 333 330 325 324 317 314 322 332 342 331 325 316 312 322 329 339 344 339 351 348 331 283
327 323 322 320 316 312 314 316 321 325 326 325 323 324 327 325 325 325 324 325 324 318 313 311 310 308 305 313 323 334 337 323 314 309 304 300 311 329 335 2 15 359 353
304 303 307 307 311 315 315 319 321 322 318 314 314 316 315 313 315 314 314 317 314 308 307 303 301 299 298 302 311 324 317 312 309 310 299 282 285 280 306 12 356 347 354
308 306 310 314 317 318 323 319 311 311 305 305 306 308 306 302 301 300 304 308 304 299 302 301 297 289 286 290 299 309 286 278 294 306 300 283 282 280 283 263 238 260 298
306 312 316 319 315 319 325 311 303 298 300 305 306 304 301 296 292 292 295 298 297 299 300 300 300 295 289 284 290 295 289 259 261 264 274 278 279 285 289 289 276 244 271
318 326 326 317 318 329 327 311 301 302 310 309 305 301 300 297 296 293 295 296 294 296 297 299 301 301 301 294 287 290 287 281 261 258 263 262 266 286 299 310 258 66 32
312 320 316 310 317 325 321 304 304 312 314 308 300 300 301 298 295 290 293 297 290 283 286 288 290 297 301 295 296 290 285 278 280 264 255 260 264 293 319 77 75 63 62
309 314 312 307 308 316 313 298 307 315 309 301 300 301 299 300 301 294 286 281 278 277 277 278 283 289 292 290 289 287 282 273 281 285 268 244 231 53 48 53 53 38 21
309 310 303 298 301 310 307 306 310 315 304 298 296 298 296 296 299 296 287 286 270 264 268 264 264 272 276 276 285 293 278 260 239 148 72 62 92 102 44 32 30 31 41
304 304 301 299 302 306 304 307 309 304 298 298 298 296 297 297 297 300 303 298 297 293 287 283 280 275 275 282 281 284 280 266 227 156 184 208 202 201 202 195 278 352 37